Orbital Elements at Epoch 2459000.5 (2020-May-31.0) TDB
Reference: JPL 15 (heliocentric ecliptic J2000)
Element | Value | Uncertainty (1-sigma) | Units |
e | .1607059973845024 | 5.2525e-08 | |
a | 2.707199945322098 | 2.7621e-08 | au |
q | 2.27213667798984 | 1.3486e-07 | au |
i | 3.574565556118461 | 6.1402e-06 | deg |
node | 128.9680780626798 | 0.00012709 | deg |
peri | 159.8827154460699 | 0.00013084 | deg |
M | 64.39018796421335 | 3.5812e-05 | deg |
tp | 2458709.497903492875 (2019-Aug-13.99790349) | 0.00015884 | TDB |
period | 1626.967680243281 4.45 | 2.4899e-05 6.817e-08 | d yr |
n | .2212705294466384 | 3.3864e-09 | deg/d |
Q | 3.142263212654356 | 3.206e-08 | au |
|
| | Orbit Determination Parameters
Additional Information
|